Theta_e
339 350 356 355 355 355 355 354 353 353 353 353 353 353 353 353 353 353 353 353 353 352 350 348 346 346 347 343 344 346 347 345 345 344 344 350 350 345 348 344 347 347 352
341 350 357 356 356 356 355 354 353 353 353 353 352 352 352 352 352 352 352 353 352 350 349 347 345 345 345 343 343 345 345 345 346 343 338 337 346 349 349 345 343 346 350
342 350 353 357 356 355 355 354 353 353 353 352 352 351 351 350 350 350 350 351 350 350 348 346 344 343 343 342 343 344 345 347 349 344 336 340 349 353 350 346 346 345 347
344 350 351 356 356 356 354 354 353 353 352 352 351 350 350 349 349 348 349 349 349 348 347 346 344 343 343 344 345 345 346 347 348 345 334 333 346 350 350 348 347 346 344
345 349 353 356 357 356 355 354 354 353 352 352 351 350 350 349 349 349 350 349 347 345 345 345 345 346 345 345 345 346 348 349 348 341 336 335 342 351 353 350 349 348 345
343 348 354 357 357 355 354 354 353 352 351 351 350 350 350 350 350 350 350 350 349 345 344 345 346 346 343 344 346 347 347 341 344 335 335 338 337 351 354 352 350 350 348
342 347 350 356 356 355 355 354 353 353 352 352 351 351 351 350 350 350 351 350 349 344 342 343 344 345 343 343 342 343 343 337 329 331 333 337 339 343 351 354 353 352 351
341 347 348 354 355 355 355 355 356 355 353 352 352 352 351 350 350 350 349 350 350 346 343 345 345 344 344 342 340 339 336 334 326 328 330 333 346 348 349 352 353 353 352
342 344 348 352 352 354 356 357 357 357 355 353 353 353 351 350 350 351 350 350 350 348 346 345 342 338 337 336 335 334 332 330 324 325 326 332 342 346 350 351 351 352 351
341 342 346 350 350 351 349 354 355 354 354 355 353 352 351 350 348 347 348 351 348 347 346 342 337 335 333 333 333 331 328 325 324 324 324 329 336 339 343 349 350 350 349
340 342 344 343 347 348 349 348 352 354 353 353 353 352 349 346 345 343 346 346 348 348 344 338 335 332 329 330 329 328 326 325 324 325 324 330 332 334 338 342 349 351 351
337 342 344 343 344 347 347 349 348 347 351 351 352 352 347 344 342 342 342 345 349 350 340 336 333 330 326 328 326 324 326 325 324 323 323 327 329 331 334 338 342 350 352
341 345 346 347 349 345 335 335 339 341 347 350 351 349 345 341 341 342 336 341 350 342 337 330 329 330 326 328 328 329 326 324 323 322 322 325 327 329 331 333 337 342 350
342 344 345 345 347 345 335 334 337 336 341 348 349 346 342 340 341 342 336 336 341 336 331 330 330 331 329 328 328 327 325 324 323 323 323 324 326 327 329 330 333 337 345
341 343 342 344 346 343 339 339 341 342 345 346 345 344 340 339 339 341 338 333 334 332 331 330 331 329 329 328 328 327 324 324 324 323 322 324 325 325 326 328 330 333 339
336 338 342 344 345 344 342 343 341 343 344 346 345 345 342 340 341 337 339 335 335 332 331 330 329 329 330 328 327 327 325 324 323 323 321 321 322 323 325 326 328 331 335
336 338 340 343 342 342 343 342 339 338 339 342 344 345 342 343 340 339 339 340 336 332 331 330 330 329 328 327 326 325 324 323 322 322 321 321 321 323 325 328 327 329 332
335 335 338 339 342 342 341 339 338 338 339 343 345 345 342 341 342 342 340 339 337 332 330 330 329 327 326 326 324 324 323 322 322 321 320 320 320 323 325 327 327 328 330
334 337 343 342 338 343 343 343 342 342 342 343 344 342 340 339 338 339 338 338 336 333 331 329 328 326 324 324 323 322 322 321 321 320 320 320 323 324 326 326 326 328 330
337 339 338 341 338 338 337 344 344 343 342 342 339 339 339 339 337 338 337 337 335 334 333 329 326 327 324 322 319 318 320 320 319 319 319 319 321 324 325 327 329 330 333
335 334 335 335 336 335 335 338 339 340 341 339 332 331 330 329 330 334 333 334 334 331 330 329 326 323 321 320 317 316 316 318 318 318 318 318 320 321 321 322 323 327 331
333 335 335 335 337 337 334 334 337 339 339 333 332 332 331 329 328 327 328 327 328 325 326 324 323 318 315 315 314 313 308 311 314 317 317 317 319 322 320 319 319 320 326
333 332 332 334 337 336 336 337 337 338 334 330 329 328 328 326 326 325 324 324 324 323 320 321 321 319 314 317 318 314 307 305 309 313 315 316 319 319 318 318 315 319 321
329 332 333 333 332 331 333 330 330 326 324 325 324 324 324 325 323 321 322 321 321 320 320 319 319 319 317 313 315 316 317 314 303 303 310 315 317 317 317 315 313 318 317
329 329 328 329 328 328 328 327 324 323 322 323 321 321 321 321 320 318 318 317 316 315 316 317 318 318 317 314 312 311 313 313 312 307 302 307 315 314 313 315 315 315 321
326 326 327 327 326 326 324 323 321 319 318 316 315 314 313 314 314 316 316 315 316 316 315 316 317 317 316 315 315 313 311 306 306 305 303 304 305 309 310 312 316 317 318
Wind_Speed
9 13 15 14 13 11 10 9 8 9 9 9 9 8 8 7 7 6 6 7 7 8 9 10 11 11 11 12 12 11 11 11 10 9 8 5 2 0 2 4 3 3 3
15 15 15 15 14 12 11 10 9 9 9 9 8 7 6 6 5 5 5 6 7 8 8 10 10 10 11 11 11 10 11 11 11 11 11 4 3 3 6 5 3 5 1
16 14 15 14 13 11 10 9 9 9 8 8 7 6 5 4 4 4 4 5 6 7 7 8 9 9 10 10 10 10 10 11 10 11 9 7 1 6 6 4 5 4 3
14 12 13 14 12 12 11 10 10 9 9 8 7 6 5 4 3 2 3 5 6 7 7 8 8 8 8 9 10 10 11 11 11 10 7 7 6 6 7 5 4 4 3
14 13 12 15 13 13 13 12 10 9 8 8 7 5 3 2 1 2 3 4 5 6 6 7 8 8 9 9 10 9 10 11 11 7 9 8 7 4 9 8 7 5 3
13 12 12 12 13 11 10 9 7 6 5 4 3 3 2 1 2 2 2 3 5 6 7 7 7 8 8 9 10 11 12 13 7 8 8 9 6 6 8 8 6 6 6
12 10 10 10 9 10 9 9 8 8 7 5 4 3 3 3 3 4 3 3 2 2 4 5 5 7 7 8 10 11 11 12 10 8 8 8 6 9 6 9 9 9 9
11 9 5 5 5 6 7 7 8 8 8 8 8 7 6 5 5 4 4 5 5 1 3 5 7 8 8 8 9 11 12 12 8 8 9 7 12 10 8 9 9 10 10
5 5 4 0 2 5 8 12 12 10 8 7 7 7 6 6 6 6 6 6 5 3 2 7 8 9 8 7 8 10 11 11 9 7 8 6 15 13 9 6 7 10 10
7 5 2 7 8 6 5 4 11 14 12 9 8 7 6 5 5 6 7 9 6 4 5 9 7 8 6 7 8 10 8 5 8 8 7 8 16 15 14 11 10 10 10
5 5 11 7 8 4 2 2 5 11 14 14 11 9 6 6 6 7 6 10 9 7 11 9 8 7 6 7 8 8 6 5 7 5 5 13 17 16 15 15 13 12 10
5 8 10 5 5 3 0 7 7 6 6 7 11 9 6 6 7 7 8 10 11 9 10 10 9 7 3 2 4 3 4 5 6 7 5 12 14 15 16 16 16 12 13
5 5 7 1 2 4 4 6 4 4 5 6 9 8 6 6 5 5 3 4 4 9 6 6 5 3 2 2 2 2 3 5 5 5 6 9 11 16 16 17 16 16 14
4 3 5 3 2 5 3 5 5 7 7 6 7 8 6 5 7 5 3 1 2 3 4 3 3 3 4 3 1 3 5 5 5 5 7 10 13 14 18 19 17 17 16
4 4 3 4 6 5 6 4 4 7 7 8 7 7 6 7 6 4 3 3 2 3 4 4 3 3 3 3 1 2 5 6 6 5 5 13 16 17 17 19 19 18 18
6 4 4 4 4 3 6 9 1 2 7 8 7 9 9 6 7 5 4 3 3 4 4 4 4 4 2 4 4 3 4 6 7 8 7 8 13 16 18 18 20 20 18
7 9 6 5 4 6 5 8 5 7 8 6 8 9 7 7 7 6 5 3 3 4 6 5 5 4 4 5 6 5 5 6 8 8 8 8 10 13 16 20 20 22 20
5 9 5 4 5 5 7 7 7 9 9 8 7 6 7 6 7 5 4 3 2 4 4 6 5 5 5 6 6 5 5 5 7 9 8 8 8 9 11 16 17 21 21
7 7 7 6 3 5 7 8 9 10 8 7 6 4 4 3 3 4 4 3 2 3 4 5 5 4 5 6 7 6 7 7 8 8 10 8 8 8 8 9 13 17 20
6 7 7 6 7 9 8 6 5 5 5 4 4 6 9 7 7 5 4 3 3 3 3 3 4 3 6 6 7 8 7 8 9 9 7 7 6 7 7 7 8 6 12
11 13 12 11 11 9 6 7 7 7 7 6 7 11 10 10 10 9 7 6 4 4 5 4 4 5 4 3 8 6 5 9 8 5 6 7 5 4 5 7 5 6 6
12 13 13 12 10 8 5 5 4 5 4 5 4 7 10 11 11 9 10 8 8 5 5 4 3 3 2 4 6 7 9 7 6 3 6 7 9 6 5 6 8 8 6
13 13 13 14 12 10 11 7 6 3 3 5 7 7 8 10 10 11 10 8 8 6 5 5 5 6 7 6 6 5 6 4 7 7 7 7 6 4 5 7 3 7 7
13 12 13 13 13 12 12 9 11 8 7 6 6 7 8 10 10 10 9 9 7 6 7 6 6 7 6 7 5 5 8 6 3 8 4 5 6 5 7 5 5 6 7
12 13 12 13 13 12 12 11 9 10 7 6 7 9 9 8 9 10 10 9 8 7 7 8 8 8 5 5 5 4 6 7 9 6 8 8 4 3 5 6 3 6 7
11 11 12 13 14 14 14 14 14 12 11 9 10 9 8 8 8 10 10 9 8 8 8 8 8 8 7 7 7 7 5 4 4 3 3 3 4 2 3 6 4 3 5
Wind_Direction
164 157 165 166 166 159 150 140 130 124 117 111 106 102 97 92 86 79 73 67 63 63 64 64 61 56 52 47 38 30 21 17 16 12 1 342 197 228 139 107 138 141 73
152 163 167 166 170 164 156 151 146 139 130 125 121 116 110 104 93 78 62 52 51 54 56 58 57 52 49 47 41 28 19 10 4 4 359 320 243 178 154 143 131 95 96
155 162 168 171 172 165 161 160 158 152 144 139 137 132 127 117 102 83 64 50 45 46 46 47 49 45 41 41 35 23 10 2 360 1 346 356 318 180 180 168 149 142 151
154 163 168 172 174 171 172 175 172 168 163 157 155 152 150 150 141 93 62 47 33 32 38 38 37 34 32 30 30 19 4 359 351 350 348 355 333 180 194 178 165 146 144
163 169 170 176 181 181 183 186 186 182 173 173 173 170 171 167 88 42 19 19 20 27 31 38 36 29 22 33 46 35 20 5 2 331 351 350 328 168 194 183 178 172 172
166 173 169 184 188 191 193 192 196 197 194 199 194 187 200 264 310 322 340 6 10 5 10 28 43 48 35 32 44 37 29 26 338 10 9 2 327 16 213 200 201 187 174
168 175 178 193 200 202 204 205 210 210 204 204 217 234 257 273 284 299 309 316 312 358 35 32 48 73 46 41 45 46 33 13 357 12 4 3 2 331 294 222 213 204 187
167 168 166 188 254 277 266 241 236 226 217 212 218 219 225 239 249 253 259 255 249 256 35 44 77 77 72 53 40 45 36 15 356 2 358 360 10 334 290 275 234 222 210
148 135 141 126 221 258 292 308 296 275 247 231 237 240 243 258 273 276 266 257 253 236 68 96 88 78 68 55 51 52 45 30 359 0 350 355 1 355 330 284 259 247 235
115 118 188 201 206 203 246 305 305 294 288 268 251 258 259 268 274 273 286 244 249 220 120 114 102 97 83 76 66 49 41 33 14 2 350 3 351 349 343 313 290 269 245
107 188 190 215 220 259 274 278 314 321 303 283 263 246 233 253 262 268 274 270 248 208 151 139 123 103 107 92 67 46 9 5 359 3 336 351 340 338 335 330 307 276 250
165 227 229 233 205 176 62 358 341 347 304 290 288 285 275 288 286 293 288 274 248 199 155 143 126 115 194 44 59 49 20 352 347 336 323 339 331 328 327 327 320 290 259
196 249 16 275 343 108 75 346 298 319 303 287 279 277 289 287 277 272 281 293 200 176 183 180 152 166 111 85 75 43 356 345 345 330 335 333 334 326 319 314 316 309 271
196 253 357 2 204 168 148 171 282 293 289 284 275 269 269 270 268 255 247 209 208 199 189 186 196 162 177 142 59 358 347 345 344 326 321 319 319 313 309 305 300 300 292
259 355 311 205 215 178 178 216 253 256 281 279 269 255 252 276 277 264 255 246 261 232 227 222 219 223 207 183 221 330 342 338 338 322 312 310 305 303 297 291 288 287 286
360 350 311 259 266 215 218 231 260 304 284 285 284 269 251 260 272 263 257 245 284 271 270 260 248 252 260 273 258 270 319 319 323 321 315 310 300 301 298 287 281 275 275
356 331 330 326 327 320 287 284 306 273 279 311 304 300 289 269 263 266 272 282 267 261 262 252 249 251 268 266 278 289 302 316 319 314 304 301 300 291 288 284 275 268 263
22 15 15 333 337 323 313 294 289 293 313 321 319 309 296 261 258 269 281 282 266 268 267 274 276 271 280 277 276 272 285 291 306 297 292 296 287 298 298 283 275 269 264
21 20 39 48 17 324 304 293 302 307 313 319 317 311 338 294 314 303 298 294 257 253 266 277 271 288 292 281 279 290 301 306 304 303 298 288 286 292 312 296 280 271 263
39 33 14 13 7 348 333 327 306 300 320 356 6 352 353 346 356 329 315 341 289 269 272 276 289 277 276 287 289 306 298 295 295 294 279 289 298 308 315 320 312 300 285
36 30 21 6 358 351 349 355 351 346 359 32 26 23 19 17 14 13 11 4 354 349 334 306 303 277 268 271 295 296 258 273 284 270 295 273 275 300 346 336 351 346 337
13 7 12 11 0 6 355 335 327 333 34 43 24 23 14 8 11 15 13 15 17 4 3 352 316 307 292 270 282 292 295 290 277 267 289 278 266 294 310 355 350 356 4
20 11 12 11 12 15 358 351 8 47 42 11 11 10 13 14 20 23 22 15 7 349 349 334 313 286 300 286 290 297 302 298 327 297 312 295 286 296 328 313 3 340 351
22 34 45 41 39 38 31 41 42 39 33 10 4 9 8 16 21 17 12 10 5 342 334 322 316 307 313 305 314 276 271 285 295 299 254 294 283 293 325 323 328 327 344
39 43 48 49 49 46 49 43 38 38 28 13 7 2 3 3 10 9 8 4 359 345 340 326 321 320 308 288 284 284 290 280 274 272 295 315 304 323 312 303 327 318 300
44 46 44 42 42 36 35 34 33 27 11 4 2 357 357 359 360 9 359 354 349 344 344 335 321 304 302 289 290 287 283 279 296 273 276 283 266 298 275 281 320 304 301